New Deal, TX

2:04 AM CST on February 08, 2016 (GMT -0600)
Lubbock International

Weather History for KLBB - November, 2013

Change the Weather History Date:

Friday, November 8, 2013

  Actual Average Record
Temperature  
Mean Temperature 50 °F 53 °F  
Max Temperature 64 °F 67 °F 88 °F (2005)
Min Temperature 35 °F 39 °F 20 °F (1943)
Degree Days  
Heating Degree Days 15 12  
Month to date heating degree days 97 86  
Since 1 July heating degree days 260 268  
Cooling Degree Days 0 0  
Month to date cooling degree days 0 0  
Year to date cooling degree days 2120 1801  
Moisture  
Dew Point 32 °F    
Average Humidity 54    
Maximum Humidity 83    
Minimum Humidity 25    
Precipitation  
Precipitation 0.00 in 0.03 in 1.02 in (1920)
Month to date precipitation 0.01 0.28  
Year to date precipitation 11.48 17.79  
Snow  
Snow 0.00 in 0.10 in 1.00 in (1968)
Month to date snowfall 0.0 0.2  
Since 1 July snowfall 0.0 0.2  
Since 1 September snowfall 0.0 0.2  
Snow Depth 0.00 in    
Sea Level Pressure  
Sea Level Pressure 30.11 in    
Wind  
Wind Speed 15 mph (SSW)    
Max Wind Speed 26 mph    
Max Gust Speed 32 mph    
Visibility 10 miles    
Events      
T = Trace of Precipitation, MM = Missing Value Source: NWS Daily Summary

Daily Weather History Graph

Daily Weather History Graph

Search for Another Location

Airport or City:

Trip Planner

Search our weather history database for the weather conditions in past years. The results will help you decide how hot, cold, wet, or windy it might be!

Date:

Astronomy

Nov. 08, 2013 Rise Set
Actual Time 7:12 AM CST 5:48 PM CST
Civil Twilight 6:46 AM CST 6:14 PM CST
Nautical Twilight 6:17 AM CST 6:44 PM CST
Astronomical Twilight 5:47 AM CST 7:13 PM CST
Moon 12:10 PM CST 11:11 PM CST
Length of Visible Light 11h 28m
Length of Day
10h 35m
Waxing Crescent, 33% of the Moon is Illuminated
Nov 8
Waxing Crescent
Nov 9
First Quarter
Nov 17
Full
Nov 25
Last Quarter
Dec 2
New

Hourly Weather History & Observations

Time (CST) Temp. Windchill Dew Point Humidity Pressure Visibility Wind Dir Wind Speed Gust Speed Precip Events Conditions
12:53 AM 44.1 °F 38.6 °F 21.0 °F 40% 30.26 in 10.0 mi South 10.4 mph - N/A   Mostly Cloudy
1:53 AM 45.0 °F 39.3 °F 23.0 °F 42% 30.25 in 10.0 mi SSW 11.5 mph - N/A   Mostly Cloudy
2:53 AM 44.1 °F 37.7 °F 24.1 °F 45% 30.23 in 10.0 mi SSW 12.7 mph - N/A   Scattered Clouds
3:53 AM 44.1 °F 38.6 °F 26.1 °F 49% 30.22 in 10.0 mi SSW 10.4 mph - N/A   Scattered Clouds
4:53 AM 43.0 °F 38.2 °F 27.0 °F 53% 30.22 in 10.0 mi SW 8.1 mph - N/A   Mostly Cloudy
5:53 AM 36.0 °F 30.3 °F 25.0 °F 64% 30.24 in 10.0 mi West 6.9 mph - N/A   Scattered Clouds
6:53 AM 36.0 °F 29.6 °F 25.0 °F 64% 30.24 in 10.0 mi WSW 8.1 mph - N/A   Mostly Cloudy
7:53 AM 43.0 °F 36.8 °F 27.0 °F 53% 30.22 in 10.0 mi SSW 11.5 mph - N/A   Mostly Cloudy
8:53 AM 48.9 °F - 26.1 °F 41% 30.21 in 10.0 mi SSW 16.1 mph 20.7 mph N/A   Mostly Cloudy
9:53 AM 53.1 °F - 26.1 °F 35% 30.19 in 10.0 mi SSW 13.8 mph - N/A   Mostly Cloudy
10:53 AM 57.0 °F - 24.1 °F 28% 30.15 in 10.0 mi SSW 25.3 mph - N/A   Mostly Cloudy
11:53 AM 60.1 °F - 27.0 °F 28% 30.12 in 10.0 mi SSW 18.4 mph 24.2 mph N/A   Mostly Cloudy
12:53 PM 60.1 °F - 27.0 °F 28% 30.08 in 10.0 mi SSW 18.4 mph 25.3 mph N/A   Mostly Cloudy
1:53 PM 62.1 °F - 28.0 °F 28% 30.04 in 10.0 mi SSW 21.9 mph 27.6 mph N/A   Mostly Cloudy
2:53 PM 62.1 °F - 27.0 °F 26% 30.02 in 10.0 mi SSW 19.6 mph 27.6 mph N/A   Mostly Cloudy
3:53 PM 60.1 °F - 30.9 °F 33% 30.01 in 10.0 mi SSW 18.4 mph 25.3 mph N/A   Mostly Cloudy
4:53 PM 57.0 °F - 39.0 °F 51% 30.01 in 10.0 mi SSW 24.2 mph 29.9 mph N/A   Mostly Cloudy
5:53 PM 53.1 °F - 42.1 °F 66% 30.02 in 10.0 mi South 20.7 mph 27.6 mph N/A   Mostly Cloudy
6:53 PM 50.0 °F - 41.0 °F 71% 30.03 in 10.0 mi SSW 17.3 mph - N/A   Mostly Cloudy
7:53 PM 48.9 °F - 39.9 °F 71% 30.02 in 10.0 mi South 17.3 mph 20.7 mph N/A   Partly Cloudy
8:53 PM 46.9 °F - 39.9 °F 77% 30.02 in 10.0 mi South 11.5 mph - N/A   Clear
9:53 PM 46.0 °F 40.2 °F 39.0 °F 76% 30.00 in 10.0 mi South 12.7 mph - N/A   Clear
10:53 PM 45.0 °F 38.2 °F 39.9 °F 82% 29.99 in 10.0 mi SSW 15.0 mph - N/A   Clear
11:50 PM 44.6 °F 38.4 °F 41.0 °F 87% 30.04 in 10.0 mi SSW 12.7 mph - N/A   Mostly Cloudy
11:51 PM 44.1 °F 38.1 °F 41.0 °F 89% 29.99 in 10.0 mi SSW 11.5 mph - N/A   Mostly Cloudy
11:53 PM 44.1 °F 38.1 °F 41.0 °F 89% 29.99 in 10.0 mi SSW 11.5 mph - N/A   Mostly Cloudy